Location: ??????
(38.1303°N, 24.0039°E)
Time: 07:57:07
(UTC+00:00)

Cosmos 1437 - Pass Details

Date: 20 June 2021
Orbit: 334 x 335 km, 81.2° (Epoch: 23 July)

Event Time Altitude Azimuth Distance (km) Brightness Sun altitude
Rises 00:10:19 0° 355° (N) 2,121 7.2 -23.7°
Reaches altitude 10° 00:12:17 10° 359° (N) 1,278 6.0 -23.5°
Enters shadow 00:13:35 24° 7° (N) 750 4.7 -23.4°
